FW2619 Weather Reports


Display with metric or nautical units.
time (UTC)temp
F
wind
direction
speed
MPH
gust
MPH
rain 1hr
in
rain 24hr
in
rain mn
in
humidity
%
barometer
mb
20210618173908 85 337 3.0 12.0 0.00 0.00 0.00 23 1008.4
20210618173406 85 1 2.0 9.0 0.00 0.00 0.00 22 1008.4
20210618171906 86 348 0.0 5.0 0.00 0.00 0.00 21 1008.2
20210618171405 86 349 1.0 3.0 0.00 0.00 0.00 22 1008.2
20210618170909 85 39 1.0 6.0 0.00 0.00 0.00 21 1008.1
20210618170407 85 16 2.0 6.0 0.00 0.00 0.00 21 1008.0
20210618164907 85 28 1.0 5.0 0.00 0.00 0.00 21 1007.9
20210618164405 85 47 1.0 6.0 0.00 0.00 0.00 24 1007.9
20210618163905 86 35 1.0 6.0 0.00 0.00 0.00 24 1007.8
20210618163407 86 50 1.0 8.0 0.00 0.00 0.00 24 1007.8
20210618161907 86 43 0.0 3.0 0.00 0.00 0.00 28 1007.8
20210618161405 86 244 0.0 1.0 0.00 0.00 0.00 30 1007.8
20210618160909 85 244 0.0 1.0 0.00 0.00 0.00 30 1007.7
20210618160407 85 244 0.0 2.0 0.00 0.00 0.00 34 1007.7
20210618154908 84 244 0.0 3.0 0.00 0.00 0.00 33 1007.6
20210618154406 84 240 0.0 3.0 0.00 0.00 0.00 32 1007.6
20210618153904 84 214 0.0 2.0 0.00 0.00 0.00 32 1007.6
20210618153409 83 180 0.0 2.0 0.00 0.00 0.00 32 1007.6
20210618151909 81 180 0.0 3.0 0.00 0.00 0.00 35 1007.6
20210618151406 80 180 0.0 3.0 0.00 0.00 0.00 37 1007.6
20210618150906 80 180 1.0 3.0 0.00 0.00 0.00 37 1007.6
20210618150405 79 180 0.0 5.0 0.00 0.00 0.00 39 1007.5
20210618144908 77 180 0.0 3.0 0.00 0.00 0.00 42 1007.4
20210618144407 76 180 0.0 2.0 0.00 0.00 0.00 45 1007.4
20210618143906 75 180 0.0 2.0 0.00 0.00 0.00 45 1007.4
20210618143404 75 180 1.0 3.0 0.00 0.00 0.00 43 1007.4
20210618141905 72 180 0.0 0.0 0.00 0.00 0.00 46 1007.3
20210618141408 71 180 0.0 0.0 0.00 0.00 0.00 49 1007.3
20210618140906 71 180 0.0 0.0 0.00 0.00 0.00 54 1007.3
20210618140405 70 180 0.0 3.0 0.00 0.00 0.00 53 1007.1
20210618134905 68 180 2.0 5.0 0.00 0.00 0.00 51 1006.8
20210618134406 68 180 1.0 5.0 0.00 0.00 0.00 52 1006.7
20210618133905 68 180 1.0 3.0 0.00 0.00 0.00 51 1006.7
20210618133404 67 180 1.0 3.0 0.00 0.00 0.00 52 1006.6
20210618131905 66 179 0.0 3.0 0.00 0.00 0.00 52 1006.5
20210618131406 66 170 0.0 3.0 0.00 0.00 0.00 53 1006.5
20210618130905 65 168 1.0 3.0 0.00 0.00 0.00 55 1006.6
20210618130405 65 172 2.0 6.0 0.00 0.00 0.00 54 1006.5
20210618124905 63 168 2.0 6.0 0.00 0.00 0.00 58 1006.7
20210618124408 61 171 2.0 5.0 0.00 0.00 0.00 62 1006.6
20210618123907 61 171 0.0 3.0 0.00 0.00 0.00 67 1006.5
20210618123405 60 171 0.0 2.0 0.00 0.00 0.00 69 1006.4
20210618121904 60 171 0.0 0.0 0.00 0.00 0.00 69 1006.2
20210618121407 59 171 0.0 0.0 0.00 0.00 0.00 70 1006.1
20210618120906 59 171 0.0 1.0 0.00 0.00 0.00 70 1006.1
20210618120404 59 171 0.0 1.0 0.00 0.00 0.00 70 1006.0
20210618114904 59 171 0.0 0.0 0.00 0.00 0.00 68 1005.9
20210618114408 59 171 0.0 0.0 0.00 0.00 0.00 69 1005.9
20210618113907 60 171 0.0 0.0 0.00 0.00 0.00 68 1005.8
20210618113404 60 171 0.0 1.0 0.00 0.00 0.00 69 1005.7
20210618111903 60 171 0.0 2.0 0.00 0.00 0.00 66 1005.6
20210618111406 61 171 0.0 2.0 0.00 0.00 0.00 65 1005.5
20210618110906 61 171 0.0 0.0 0.00 0.00 0.00 65 1005.5
20210618110404 61 171 0.0 0.0 0.00 0.00 0.00 65 1005.4
20210618104905 61 171 0.0 0.0 0.00 0.00 0.00 63 1005.2
20210618104407 61 171 0.0 0.0 0.00 0.00 0.00 63 1005.1
20210618103906 62 171 0.0 0.0 0.00 0.00 0.00 63 1005.2
20210618103405 62 171 0.0 0.0 0.00 0.00 0.00 64 1005.1
20210618101906 62 171 0.0 0.0 0.00 0.00 0.00 62 1005.0
20210618101408 62 171 1.0 3.0 0.00 0.00 0.00 60 1004.9
20210618100907 62 171 0.0 3.0 0.00 0.00 0.00 60 1004.9
20210618100405 62 171 0.0 5.0 0.00 0.00 0.00 60 1004.9
20210618094905 63 172 0.0 0.0 0.00 0.00 0.00 58 1004.7
20210618094408 63 172 0.0 0.0 0.00 0.00 0.00 59 1004.7
20210618093907 63 172 0.0 0.0 0.00 0.00 0.00 59 1004.7
20210618093406 64 172 0.0 0.0 0.00 0.00 0.00 57 1004.7
20210618091910 64 172 0.0 0.0 0.00 0.00 0.00 57 1004.6
20210618091406 64 172 0.0 1.0 0.00 0.00 0.00 56 1004.5
20210618090906 65 172 0.0 0.0 0.00 0.00 0.00 56 1004.6
20210618090405 65 172 0.0 3.0 0.00 0.00 0.00 53 1004.5
20210618084905 65 171 0.0 3.0 0.00 0.00 0.00 55 1004.3
20210618084408 65 171 1.0 3.0 0.00 0.00 0.00 53 1004.3
20210618083907 65 171 1.0 3.0 0.00 0.00 0.00 53 1004.3
20210618083405 65 171 0.0 0.0 0.00 0.00 0.00 54 1004.5
20210618081906 66 171 0.0 1.0 0.00 0.00 0.00 53 1004.4
20210618081407 66 171 0.0 1.0 0.00 0.00 0.00 54 1004.3
20210618080907 66 171 0.0 0.0 0.00 0.00 0.00 52 1004.3
20210618080406 67 171 0.0 1.0 0.00 0.00 0.00 51 1004.3
20210618074906 67 171 0.0 0.0 0.00 0.00 0.00 49 1004.2
20210618074409 67 171 0.0 1.0 0.00 0.00 0.00 51 1004.3
20210618073907 68 171 0.0 1.0 0.00 0.00 0.00 50 1004.3
20210618073406 68 171 0.0 3.0 0.00 0.00 0.00 49 1004.3
20210618071906 69 171 1.0 3.0 0.00 0.00 0.00 46 1004.3
20210618071404 70 171 0.0 3.0 0.00 0.00 0.00 46 1004.3
20210618070907 70 171 1.0 3.0 0.00 0.00 0.00 46 1004.3
20210618070406 70 171 0.0 5.0 0.00 0.00 0.00 42 1004.3
20210618064906 70 171 0.0 5.0 0.00 0.00 0.00 45 1004.5
20210618064408 70 171 0.0 2.0 0.00 0.00 0.00 45 1004.5
20210618063907 70 171 0.0 1.0 0.00 0.00 0.00 45 1004.6
20210618063406 70 171 1.0 2.0 0.00 0.00 0.00 46 1004.6
20210618061906 71 171 0.0 1.0 0.00 0.00 0.00 44 1004.8
20210618061408 71 171 1.0 3.0 0.00 0.00 0.00 44 1004.8
20210618060908 71 171 0.0 3.0 0.00 0.00 0.00 42 1004.8
20210618060408 71 171 1.0 3.0 0.00 0.00 0.00 43 1004.9
20210618054906 71 171 0.0 1.0 0.00 0.00 0.00 44 1005.0
20210618054405 71 171 1.0 3.0 0.00 0.00 0.00 44 1005.1
20210618053907 72 171 0.0 3.0 0.00 0.00 0.00 42 1005.1
20210618053406 72 171 0.0 3.0 0.00 0.00 0.00 43 1005.1
20210618051907 73 171 0.0 0.0 0.00 0.00 0.00 41 1005.2
20210618051408 74 171 0.0 0.0 0.00 0.00 0.00 41 1005.2
20210618050907 75 171 0.0 0.0 0.00 0.00 0.00 37 1005.2
20210618050409 75 171 0.0 0.0 0.00 0.00 0.00 36 1005.2
20210618044904 77 171 0.0 0.0 0.00 0.00 0.00 37 1005.2
20210618044406 77 171 0.0 0.0 0.00 0.00 0.00 33 1005.1
20210618043906 77 171 0.0 2.0 0.00 0.00 0.00 32 1005.1
20210618043404 78 171 0.0 3.0 0.00 0.00 0.00 31 1005.0
20210618041904 79 171 0.0 0.0 0.00 0.00 0.00 32 1005.0
20210618041407 80 171 0.0 0.0 0.00 0.00 0.00 31 1005.0
20210618040906 80 171 0.0 3.0 0.00 0.00 0.00 29 1005.0
20210618040404 80 174 1.0 9.0 0.00 0.00 0.00 28 1004.9
20210618034905 80 164 3.0 9.0 0.00 0.00 0.00 28 1004.7
20210618034408 80 155 3.0 9.0 0.00 0.00 0.00 29 1004.7
20210618033907 80 152 2.0 8.0 0.00 0.00 0.00 29 1004.7
20210618033406 81 172 1.0 6.0 0.00 0.00 0.00 29 1004.7
20210618031905 81 146 2.0 6.0 0.00 0.00 0.00 28 1004.7
20210618031408 81 138 2.0 7.0 0.00 0.00 0.00 29 1004.7
20210618030906 81 151 3.0 7.0 0.00 0.00 0.00 29 1004.6
20210618030406 81 157 4.0 9.0 0.00 0.00 0.00 29 1004.6
20210618024906 81 170 1.0 6.0 0.00 0.00 0.00 31 1004.5
20210618024409 81 171 0.0 6.0 0.00 0.00 0.00 32 1004.6
20210618023906 81 171 0.0 0.0 0.00 0.00 0.00 31 1004.7
20210618023405 82 171 0.0 5.0 0.00 0.00 0.00 31 1004.7
20210618021906 82 171 0.0 2.0 0.00 0.00 0.00 31 1004.6
20210618021409 83 171 0.0 2.0 0.00 0.00 0.00 30 1004.5
20210618020907 83 171 0.0 1.0 0.00 0.00 0.00 30 1004.6
20210618020405 84 171 0.0 2.0 0.00 0.00 0.00 29 1004.6
20210618014906 84 171 0.0 0.0 0.00 0.00 0.00 30 1004.7
20210618014403 85 171 0.0 0.0 0.00 0.00 0.00 29 1004.7
20210618013905 85 171 0.0 0.0 0.00 0.00 0.00 30 1004.7
20210618013404 86 171 0.0 0.0 0.00 0.00 0.00 28 1004.7
20210618011904 87 171 1.0 6.0 0.00 0.00 0.00 26 1004.3
20210618011407 87 170 1.0 6.0 0.00 0.00 0.00 25 1004.2
20210618010907 87 168 2.0 8.0 0.00 0.00 0.00 25 1004.0
20210618010405 87 161 3.0 8.0 0.00 0.00 0.00 24 1003.9
20210618004906 88 144 5.0 9.0 0.00 0.00 0.00 23 1003.9
20210618004408 88 160 2.0 9.0 0.00 0.00 0.00 23 1003.8
20210618003906 88 160 2.0 6.0 0.00 0.00 0.00 22 1003.9
20210618003406 89 168 3.0 10.0 0.00 0.00 0.00 22 1004.1
20210618001904 90 185 5.0 12.0 0.00 0.00 0.00 20 1004.2
20210618001407 90 163 3.0 8.0 0.00 0.00 0.00 19 1004.1
20210618000905 90 151 1.0 6.0 0.00 0.00 0.00 18 1004.0
20210618000406 91 156 2.0 12.0 0.00 0.00 0.00 18 1003.9
20210617234905 91 177 3.0 12.0 0.00 0.00 0.00 16 1004.4
20210617234407 91 163 2.0 12.0 0.00 0.00 0.00 16 1004.7
20210617233906 90 179 2.0 15.0 0.00 0.00 0.00 16 1004.9
20210617233405 90 141 3.0 15.0 0.00 0.00 0.00 17 1005.1
20210617231905 90 37 1.0 8.0 0.00 0.00 0.00 18 1005.6
20210617231407 90 31 1.0 6.0 0.00 0.00 0.00 17 1005.0
20210617230906 90 29 0.0 6.0 0.00 0.00 0.00 17 1004.8
20210617230404 90 25 2.0 7.0 0.00 0.00 0.00 18 1004.7
20210617224905 92 149 1.0 6.0 0.00 0.00 0.00 19 1004.5
20210617224408 93 151 0.0 6.0 0.00 0.00 0.00 20 1004.5
20210617223907 94 153 0.0 3.0 0.00 0.00 0.00 21 1004.5
20210617223405 95 153 0.0 7.0 0.00 0.00 0.00 20 1004.3
20210617221904 97 153 2.0 7.0 0.00 0.00 0.00 15 1004.1
20210617221407 98 153 3.0 9.0 0.00 0.00 0.00 15 1004.2
20210617220906 99 150 2.0 9.0 0.00 0.00 0.00 14 1004.1
20210617220405 100 144 2.0 8.0 0.00 0.00 0.00 13 1004.1
20210617214905 99 67 0.0 1.0 0.00 0.00 0.00 17 1004.1
20210617214407 99 67 0.0 0.0 0.00 0.00 0.00 16 1004.2
20210617213907 98 67 0.0 0.0 0.00 0.00 0.00 17 1004.3
20210617213405 98 67 0.0 3.0 0.00 0.00 0.00 15 1004.3
20210617211905 98 67 0.0 3.0 0.00 0.00 0.00 18 1004.4
20210617211408 98 67 1.0 3.0 0.00 0.00 0.00 15 1004.5
20210617210907 98 67 1.0 3.0 0.00 0.00 0.00 14 1004.5
20210617210406 98 67 0.0 3.0 0.00 0.00 0.00 13 1004.6
20210617204906 99 67 0.0 3.0 0.00 0.00 0.00 14 1004.7
20210617204404 99 67 0.0 1.0 0.00 0.00 0.00 16 1004.7
20210617203908 100 67 1.0 5.0 0.00 0.00 0.00 13 1004.7
20210617203407 101 67 0.0 3.0 0.00 0.00 0.00 14 1004.7
20210617201906 101 65 2.0 5.0 0.00 0.00 0.00 10 1004.7
20210617201409 101 65 0.0 5.0 0.00 0.00 0.00 12 1004.8
20210617200908 101 65 0.0 2.0 0.00 0.00 0.00 13 1004.9
20210617200406 102 65 0.0 3.0 0.00 0.00 0.00 14 1004.9
20210617194907 101 65 1.0 5.0 0.00 0.00 0.00 13 1005.0
20210617194404 100 65 0.0 3.0 0.00 0.00 0.00 13 1005.1
20210617193904 100 65 2.0 6.0 0.00 0.00 0.00 12 1005.1
20210617193406 101 64 1.0 6.0 0.00 0.00 0.00 13 1005.2
20210617191907 100 59 1.0 3.0 0.00 0.00 0.00 13 1005.4
20210617191404 100 59 1.0 3.0 0.00 0.00 0.00 13 1005.5
20210617190909 101 59 0.0 3.0 0.00 0.00 0.00 15 1005.5
20210617190407 100 59 1.0 3.0 0.00 0.00 0.00 12 1005.6
20210617184907 100 59 0.0 3.0 0.00 0.00 0.00 14 1005.7
20210617184405 100 59 2.0 6.0 0.00 0.00 0.00 13 1005.8
20210617183904 100 66 1.0 5.0 0.00 0.00 0.00 13 1005.9
20210617183408 100 71 1.0 5.0 0.00 0.00 0.00 12 1005.9
20210617181927 101 71 1.0 3.0 0.00 0.00 0.00 12 1006.1
20210617181408 101 71 0.0 3.0 0.00 0.00 0.00 12 1006.1
20210617180907 100 71 0.0 3.0 0.00 0.00 0.00 13 1006.2
20210617180406 100 71 1.0 3.0 0.00 0.00 0.00 13 1006.2
20210617174906 99 71 0.0 3.0 0.00 0.00 0.00 13 1006.4
20210617174422 99 73 1.0 3.0 0.00 0.00 0.00 14 1006.4